User: anonymous   Login
Location: Lucerne Valley
(34.4439°N, 116.9669°E)
Time: 11:10:07
(UTC-07:00)
Language:

Vanguard 2 Rocket - Orbit

View from above orbital plane
View from above orbital plane
View from above satellite
View from above satellite

Ground track
Ground track

The orbit data is extracted from the following two-line orbital elements,

1 00012U 59001B   18198.53340836  .00000085  00000-0  46287-4 0  9991
2 00012  32.9029 283.1634 1667149 351.0683   6.3390 11.44249315442248
Epoch (UTC): 17 July 2018 12:48:06
Eccentricity: 0.1667149
inclination: 32.9029°
perigee height: 554 km
apogee height: 3327 km
right ascension of ascending node: 283.1634°
argument of perigee: 351.0683°
revolutions per day: 11.44249315
mean anomaly at epoch: 6.3390°
orbit number at epoch: 44224

The dashed part of the orbit path shows where the satellite is in the earth's shadow,  

DLR